sat.trackr.live / text

‹ back to catalog

QIANFAN-202

NORAD 69801 · 2026-153B

PAYLOAD ACTIVE UNKNOWN

§ Identity

Operator
Country
PRC
Launch date
2026-07-04
Launch site
TAISC
Launch vehicle
Mass (kg)
RCS (m²)

External: N2YO · Heavens-Above · Gunter

§ Orbital elements

Epoch: 2026-09-20T03:56:57.926112Z

Period
102.39 min
Inclination
88.9978°
Eccentricity
0.0007018
Mean motion
14.06321150 rev/d
Perigee alt
866.9 km
Apogee alt
877.1 km
Semi-major
7,250.1 km
B*
1.6260e-4
RAAN
351.4626°
Arg perigee
345.6508°
Mean anomaly
14.4474°
Rev number
1,101

§ Raw data

QIANFAN-2021 69801U 26153B   26263.16455933  .00000282  00000+0  16260-3 0  99952 69801  88.9978 351.4626 0007018 345.6508  14.4474 14.06321150 11019

JSON: /api/v1/satellites/69801 · /tle

For live sub-satellite position, see the globe view (requires WebGL).

§ Visibility from observer

Set your observer location to see the next 7 days of passes ≥ 10°. The values pass through the URL so the page stays shareable.

No JS? Fill the form by hand. The geolocation button needs JavaScript.